This demonstration page uses our WeatherBlox Daily Observations layout. Learn more.

Left ArrowRight Arrow

Hourly Observations for October 23, 2022

Temp ( °F °C ) Dew Point ( °F °C ) Humidity (%) Winds ( mph kmh ) Pressure ( in mb ) Visibility ( mi km ) Precip ( " mm )
12:15 am 00:15 Hazy 54 12 39 4 58 58 SSE 5 7 29.42 996 2 3 0.00 0.00
12:23 am 00:23 Hazy 54 12 39 4 58 58 SE 6 9 29.42 996 4 6 0.00 0.00
12:56 am 00:56 Clear 52 11.1 40 4.4 63 63 SSE 5 7 29.37 995 10 16 0.00 0.00
1:56 am 01:56 Clear 48 8.9 38 3.3 68 68 E 6 9 29.35 994 10 16 0.00 0.00
2:56 am 02:56 Clear with Light Rain 50 10 38 3.3 63 63 SE 9 15 29.32 993 10 16 0.01 0.13
3:41 am 03:41 Clear with Light Rain 52 11 39 4 62 62 SSE 9 15 29.36 994 2 2 0.01 0.13
3:56 am 03:56 Clear with Light Rain 49 9.4 39 3.9 68 68 S 8 13 29.31 993 1 2 0.01 0.13
4:12 am 04:12 Clear with Light Rain 48 9 39 4 71 71 S 7 11 29.37 995 1 1 0.01 0.13
4:31 am 04:31 Clear with Light Rain 52 11 39 4 62 62 SSE 7 11 29.35 994 2 3 0.01 0.13
4:56 am 04:56 Hazy 51 10.6 41 5 68 68 SSW 6 9 29.30 992 3 5 0.01 0.13
5:07 am 05:07 Hazy 50 10 41 5 71 71 S 8 13 29.34 994 1 2 0.00 0.00
5:56 am 05:56 Clear with Light Rain 48 8.9 40 4.4 73 73 S 6 9 29.29 992 2 2 0.01 0.13
6:01 am 06:01 Clear with Light Rain 48 9 39 4 71 71 S 8 13 29.34 994 3 5 0.01 0.13
6:09 am 06:09 Clear with Light Rain 46 8 39 4 76 76 S 8 13 29.36 994 2 3 0.01 0.13
6:30 am 06:30 Clear with Light Rain 46 8 39 4 76 76 S 7 11 29.35 994 3 5 0.01 0.13
6:56 am 06:56 Clear with Light Rain 47 8.3 38 3.3 71 71 S 9 15 29.31 992 4 6 0.01 0.13
7:05 am 07:05 Clear with Light Rain 45 7 37 3 76 76 S 12 19 29.37 995 2 3 0.01 0.13
7:16 am 07:16 Clear with Light Rain 46 8 37 3 71 71 S 10 17 29.35 994 3 5 0.01 0.13
7:35 am 07:35 Clear with Light Rain 45 7 37 3 76 76 S 9 15 29.36 994 2 3 0.01 0.13
7:47 am 07:47 Clear with Light Rain 46 8 37 3 71 71 S 13 20 29.36 994 1 1 0.01 0.13
7:58 am 07:58 Sunny with Light Rain 50 10 37 3 62 62 S 10 17 29.34 994 3 5 0.01 0.13
8:41 am 08:41 Sunny with Light Rain 55 13 39 4 54 54 S 13 20 29.31 993 2 2 0.01 0.13
8:56 am 08:56 Sunny with Light Rain 56 13.3 40 4.4 55 55 S 13 20 29.30 992 0 0 0.01 0.13
9:04 am 09:04 Hazy 57 14 39 4 51 51 S 15 24 29.30 992 1 1 0.01 0.13
9:56 am 09:56 Hazy 63 17.2 44 6.7 50 50 S 16 26 29.30 992 1 1 0.01 0.13
10:06 am 10:06 Hazy 64 18 45 7 49 49 S 18 30 29.27 991 1 2 0.00 0.00
10:46 am 10:46 Hazy 72 22 48 9 43 43 S 18 30 29.22 990 1 1 0.00 0.00
10:56 am 10:56 Hazy 75 23.9 49 9.4 40 40 SSW 18 30 29.27 991 2 3 0.00 0.00
11:24 am 11:24 Sunny 77 25 50 10 39 39 S 24 39 29.19 989 10 16 0.00 0.00
11:56 am 11:56 Sunny 78 25.6 51 10.6 39 39 S 26 43 29.24 990 10 16 0.00 0.00
12:56 pm 12:56 Sunny 83 28.3 52 11.1 34 34 S 29 46 29.22 990 10 16 0.00 0.00
1:56 pm 13:56 Sunny 86 30 47 8.3 26 26 SSW 30 48 29.19 988 10 16 0.00 0.00
2:56 pm 14:56 Mostly Sunny 87 30.6 47 8.3 25 25 SSW 29 46 29.16 987 9 14 0.00 0.00
3:56 pm 15:56 Cloudy with Heavy Rain 82 27.8 45 7.2 27 27 SSW 24 39 29.19 988 3 5 0.02 0.51
4:56 pm 16:56 Mostly Cloudy 82 27.8 45 7.2 27 27 SSW 20 31 29.17 988 8 13 0.02 0.51
5:56 pm 17:56 Partly Cloudy 83 28.3 40 4.4 22 22 SSW 16 26 29.19 988 10 16 0.00 0.00
6:56 pm 18:56 Mostly Cloudy 80 26.7 38 3.3 22 22 S 17 28 29.21 989 8 13 0.00 0.00
7:56 pm 19:56 Partly Cloudy 80 26.7 38 3.3 22 22 SSW 21 33 29.22 989 10 16 0.00 0.00
8:15 pm 20:15 Clear 73 23 34 1 23 23 NW 16 26 29.21 989 10 16 0.00 0.00
8:56 pm 20:56 Partly Cloudy with Light Rain 65 18.3 37 2.8 36 36 NNW 16 26 29.33 993 10 16 0.01 0.13
9:56 pm 21:56 Clear 61 16.1 37 2.8 41 41 NNW 18 30 29.38 995 10 16 0.01 0.13
10:56 pm 22:56 Clear 56 13.3 37 2.8 49 49 NW 6 9 29.45 997 10 16 0.00 0.00
11:56 pm 23:56 Clear 54 12.2 37 2.8 53 53 NW 17 28 29.49 999 10 16 0.00 0.00

Powered by AerisWeather